DELTA 1 DEB

Satellite information

Favourite Embed

Satellite Type and Status

DEBRISIN ORBIT

Key statistics

Satellite DELTA 1 DEB at a glance.

Uptime

17451

Days in orbit

Revolutions

≈ 14.2

Per day

Orbit

SSO

Sun Synchronous Orbit

Inclination

99.0

Latest

Satellite identification and parameters

Extended collection of information and parameters for DELTA 1 DEB.

Object identification

Identified? True

Debris? True

Object name: DELTA 1 DEB

International designator: 1978-026JZ

Object number (NORAD): 37662

Object ID (CCSDS): 37662

Country: UNITED STATES OF AMERICA (US)

Current information (Y/N): Y

RCS size: SMALL

Orbital parameters

Period: 101.684 minutes

Inclination: 99.0285 deg

SMA: 7216.514 km

Apoapsis: 862.817 km

Periapsis: 813.94 km

RAAN: 1.3272 deg

Eccentricy: 0.00338648

Argument of periapsis: 265.4589 deg

Mean anomaly: 94.2716 deg

Mean motion: 14.16157692 rev/day

Mean motion (dot): 0.00000841 rev/day2

B* drag term: 0.0004461493 1/REarth

Two-line elements (TLE)

Creation date: Dec. 13, 2025, 5:47 p.m.

Reference frame: TEME

Reference center: EARTH

Epoch: Dec. 13, 2025, 7:18 a.m. UTC

TLE line 0: 0 DELTA 1 DEB

TLE line 1: 1 37662U 78026JZ 25347.30475223 .00000841 00000-0 44615-3 0 9990

TLE line 2: 2 37662 99.0285 1.3272 0033865 265.4589 94.2716 14.16157692640346

Live tracking on map

Real-time ground track for satellite DELTA 1 DEB.

In-orbit conjunctions

A list of the most updated potential collisions computed for object DELTA 1 DEB.

Target Orbit TCA Probability of collision Miss distance Type
FENGYUN 1C DEB SSO 2025-06-21 10:49:46 0.0004558853 98.0 (m) DEBRIS
COSMOS 1275 DEB LEO 2024-11-14 15:01:40 0.0004301384 793.0 (m) DEBRIS

Associated space launch

Earth observation satellite

DELTA 1 DEB was lifted into orbit during the mission ‘Delta 2910 | Landsat 3’, on board a Delta 2910 space rocket.

The launch took place on March 5, 1978, 5:54 p.m. from Space Launch Complex 2W.

For more information about the launch, click the button.

Launch to space Delta 2910 | Landsat 3
Delta 2910 | Landsat 3

Agency: N/A

Status: Launch Successful

Launch date: March 5, 1978, 5:54 p.m. UTC

Rocket: Delta 2910

Launch pad: Space Launch Complex 2W

Location: Vandenberg SFB, CA, USA

...

Latest news about this satellite

There are no fresh news available about this satellite. Check back as we update our databases every day.


Newsletter sign-up

Weekly statistics, charts and insights to help you stay on top of the space industry.